N4GD Pinellas Park FL US current weather conditions

sailwx.info

Wind from 026 at 1 knots gusting 7

Air temperature 25.6° C
Dewpoint 20.3° C

Last reported at 2019-Sep-20 02:56 UTC.
Time now 2019-Sep-20 04:11 UTC

Location: N 27°52' W 082°43'.
View on Google Maps.

See reports from other nearby stations

  
Tides and Currents Weather Stations Pressure Air Temp Water Temp Dewpoint Dewpoint Depression Visibility Wind Speed Wind Dir Waves Ship Positions
date/time (UTC)wind fromknots sea level pressurealtimeterstation pressurevisibilityair tempwater tempwave heightnotes
2019-Sep-20 02:56 026 1 gusting 7 25.6
2019-Sep-20 02:41 125 0 gusting 5 26.1
2019-Sep-20 02:26 051 0 gusting 5 26.1
2019-Sep-20 02:11 338 0 gusting 8 26.1
2019-Sep-20 01:56 039 1 gusting 7 26.7
2019-Sep-20 01:41 039 1 gusting 8 26.7
2019-Sep-20 01:26 317 1 gusting 9 26.7
2019-Sep-20 01:11 035 1 gusting 9 26.7
2019-Sep-20 00:56 015 2 gusting 9 26.7
2019-Sep-20 00:41 026 2 gusting 7 27.2
2019-Sep-20 00:26 030 2 gusting 9 27.2
2019-Sep-20 00:11 005 2 gusting 8 27.2
2019-Sep-19 23:56 342 2 gusting 8 27.2
2019-Sep-19 23:41 036 2 gusting 12 27.8
2019-Sep-19 23:26 27.8
2019-Sep-19 23:11 030 1 gusting 6 28.3
2019-Sep-19 22:56 029 3 gusting 11 28.3
2019-Sep-19 22:41 030 4 gusting 9 28.3
2019-Sep-19 22:26 033 4 gusting 12 28.9
2019-Sep-19 22:11 018 5 gusting 19 29.4
2019-Sep-19 21:56 062 5 gusting 13 29.4
2019-Sep-19 21:41 017 6 gusting 18 30.6
2019-Sep-19 21:26 355 5 gusting 15 31.1
2019-Sep-19 21:11 105 3 gusting 13 32.2
2019-Sep-19 20:56 017 4 gusting 11 31.7
2019-Sep-19 20:41 060 3 gusting 12 32.2
2019-Sep-19 20:26 012 5 gusting 13 31.7
2019-Sep-19 20:11 019 3 gusting 11 31.7
2019-Sep-19 19:56 032 4 gusting 11 32.2
2019-Sep-19 19:41 047 3 gusting 13 32.2
2019-Sep-19 19:26 030 4 gusting 13 32.2
2019-Sep-19 19:11 123 3 gusting 9 32.8
2019-Sep-19 18:56 016 4 gusting 10 32.2
2019-Sep-19 18:41 32.8
2019-Sep-19 18:26 070 2 gusting 11 32.8
2019-Sep-19 18:11 135 3 gusting 10 31.7
2019-Sep-19 17:56 065 2 gusting 6 32.2
2019-Sep-19 17:41 319 3 gusting 10 31.7
2019-Sep-19 17:26 103 3 gusting 9 31.1
2019-Sep-19 17:11 132 3 gusting 11 31.7
2019-Sep-19 16:56 032 3 gusting 9 31.7
2019-Sep-19 16:41 102 3 gusting 9 31.7
2019-Sep-19 16:26 083 3 gusting 9 31.1
2019-Sep-19 16:11 112 3 gusting 12 30.6
2019-Sep-19 15:56 094 3 gusting 10 30.6
2019-Sep-19 15:41 077 3 gusting 8 30.0
2019-Sep-19 15:26 039 3 gusting 10 29.4
2019-Sep-19 15:11 101 2 gusting 7 28.9
2019-Sep-19 14:56 314 3 gusting 9 28.3
2019-Sep-19 14:41 094 2 gusting 9 28.3
2019-Sep-19 14:26 212 2 gusting 8 27.8
2019-Sep-19 14:11 139 2 gusting 7 27.8
2019-Sep-19 13:56 146 2 gusting 7 27.2
2019-Sep-19 13:41 069 1 gusting 5 26.7
2019-Sep-19 13:26 052 1 gusting 7 26.1
2019-Sep-19 13:11 030 1 gusting 7 26.7
2019-Sep-19 12:56 163 0 gusting 9 26.1
2019-Sep-19 12:41 092 0 gusting 6 26.1
2019-Sep-19 12:26 161 0 gusting 6 25.0
2019-Sep-19 12:11 090 0 gusting 5 25.0
2019-Sep-19 11:56 345 0 gusting 5 24.4
2019-Sep-19 11:41 095 0 gusting 6 24.4
2019-Sep-19 11:26 097 0 gusting 4 24.4
2019-Sep-19 11:11 116 0 gusting 6 24.4
2019-Sep-19 10:56 132 24.4
2019-Sep-19 10:41 116 0 gusting 4 24.4
2019-Sep-19 10:26 096 1 gusting 6 24.4
2019-Sep-19 10:11 101 0 gusting 5 24.4
2019-Sep-19 09:56 355 0 gusting 3 24.4
2019-Sep-19 09:41 077 24.4
2019-Sep-19 09:26 026 0 gusting 4 24.4
2019-Sep-19 09:11 092 0 gusting 5 24.4
2019-Sep-19 08:56 101 0 gusting 6 25.0
2019-Sep-19 08:41 087 0 gusting 6 25.0
2019-Sep-19 08:26 087 1 gusting 6 25.0
2019-Sep-19 08:11 116 2 gusting 6 25.0
2019-Sep-19 07:56 078 1 gusting 7 25.0
2019-Sep-19 07:41 114 0 gusting 8 25.0
2019-Sep-19 07:26 076 1 gusting 5 25.6
2019-Sep-19 07:11 131 1 gusting 6 25.6
2019-Sep-19 06:56 117 0 gusting 6 25.6
2019-Sep-19 06:41 351 0 gusting 6 25.6
2019-Sep-19 06:26 132 0 gusting 7 25.6
2019-Sep-19 06:11 092 0 gusting 6 25.6
2019-Sep-19 05:56 084 0 gusting 5 25.6
2019-Sep-19 05:41 052 25.6
2019-Sep-19 05:26 089 25.6
2019-Sep-19 05:11 114 0 gusting 6 25.6
2019-Sep-19 04:56 107 0 gusting 6 25.6
2019-Sep-19 04:41 130 0 gusting 6 26.1
2019-Sep-19 04:26 051 26.1
2019-Sep-19 04:11 088 1 gusting 6 26.7
2019-Sep-19 03:56 118 0 gusting 5 27.2
2019-Sep-19 03:41 115 1 gusting 6 27.2
2019-Sep-19 03:25 112 3 gusting 11 27.2
2019-Sep-19 03:10 102 2 gusting 6 27.8
2019-Sep-19 02:55 147 2 gusting 8 27.8
2019-Sep-19 02:40 110 0 gusting 6 27.8
2019-Sep-19 02:25 099 0 gusting 6 27.2
2019-Sep-19 02:10 115 27.2
2019-Sep-19 01:55 054 27.2
2019-Sep-19 01:40 096 26.7
2019-Sep-19 01:25 084 26.7
2019-Sep-19 01:10 082 27.2
2019-Sep-19 00:55 113 27.2
2019-Sep-19 00:40 059 27.2
2019-Sep-19 00:25 111 0 gusting 6 27.2
2019-Sep-19 00:10 106 3 gusting 6 27.8
2019-Sep-18 23:55 106 2 gusting 10 28.9
2019-Sep-18 23:40 095 0 gusting 6 30.0
2019-Sep-18 23:25 128 1 gusting 7 30.6
2019-Sep-18 23:10 107 3 gusting 8 31.7
2019-Sep-18 22:55 020 4 gusting 6 32.8
2019-Sep-18 22:40 012 2 gusting 6 32.8
2019-Sep-18 22:25 005 2 gusting 6 33.3
2019-Sep-18 22:10 323 3 gusting 8 33.3
2019-Sep-18 21:55 344 2 gusting 10 33.9
2019-Sep-18 21:40 317 2 gusting 6 34.4
2019-Sep-18 21:25 34.4
2019-Sep-18 21:10 344 2 gusting 6 34.4
2019-Sep-18 20:55 279 2 gusting 7 34.4
2019-Sep-18 20:40 320 3 gusting 6 34.4
2019-Sep-18 20:25 299 2 gusting 6 34.4
2019-Sep-18 20:10 274 2 gusting 7 34.4
2019-Sep-18 19:55 267 2 gusting 7 34.4
2019-Sep-18 19:40 315 2 gusting 7 34.4
2019-Sep-18 19:25 233 2 gusting 6 34.4
2019-Sep-18 19:10 221 1 gusting 6 35.0
2019-Sep-18 18:55 247 2 gusting 6 35.6
2019-Sep-18 18:40 148 0 gusting 4 35.6
2019-Sep-18 18:25 038 1 gusting 5 35.6
2019-Sep-18 18:10 078 1 gusting 6 35.6
2019-Sep-18 17:55 021 0 gusting 4 36.1
2019-Sep-18 17:40 104 1 gusting 5 35.6
2019-Sep-18 17:25 121 1 gusting 5 34.4
2019-Sep-18 17:10 074 0 gusting 4 34.4
2019-Sep-18 16:55 005 1 gusting 6 34.4
2019-Sep-18 16:40 018 1 gusting 7 33.9
2019-Sep-18 16:25 055 3 gusting 7 33.9
2019-Sep-18 16:10 123 2 gusting 5 33.9
2019-Sep-18 15:55 113 2 gusting 6 32.8
2019-Sep-18 15:40 116 0 gusting 6 32.8
2019-Sep-18 15:25 119 0 gusting 4 32.2
2019-Sep-18 15:10 109 1 gusting 6 31.7
2019-Sep-18 14:55 080 1 gusting 6 31.7
2019-Sep-18 14:40 118 31.1
2019-Sep-18 14:25 129 1 gusting 5 30.6
2019-Sep-18 14:10 116 0 gusting 6 30.0
2019-Sep-18 13:55 130 1 gusting 6 29.4
2019-Sep-18 13:40 132 0 gusting 3 28.9
2019-Sep-18 13:25 125 0 gusting 3 28.3
2019-Sep-18 13:10 123 27.2
2019-Sep-18 12:55 088 25.6
2019-Sep-18 12:40 017 24.4
2019-Sep-18 12:25 015 23.3
2019-Sep-18 12:10 016 22.8
2019-Sep-18 11:55 016 22.8
2019-Sep-18 11:40 016 22.2
2019-Sep-18 11:25 016 22.2
2019-Sep-18 11:10 016 22.2
2019-Sep-18 10:55 016 22.8
2019-Sep-18 10:40 016 22.8
2019-Sep-18 10:25 016 22.8
2019-Sep-18 10:10 016 22.8
2019-Sep-18 09:55 016 22.8
2019-Sep-18 09:40 016 22.8
2019-Sep-18 09:25 016 23.3
2019-Sep-18 09:10 016 23.3
2019-Sep-18 08:55 016 23.3
2019-Sep-18 08:40 016 23.3
2019-Sep-18 08:25 015 23.3
2019-Sep-18 08:10 014 23.3
2019-Sep-18 07:55 014 23.3
2019-Sep-18 07:40 014 23.3
2019-Sep-18 07:25 014 23.9
2019-Sep-18 07:10 014 23.9
2019-Sep-18 06:55 012 23.9
2019-Sep-18 06:40 012 24.4
2019-Sep-18 06:25 012 24.4
2019-Sep-18 06:10 012 25.0
2019-Sep-18 05:55 012 25.0
2019-Sep-18 05:40 012 25.0
2019-Sep-18 05:25 012 25.6
2019-Sep-18 05:10 012 25.6
2019-Sep-18 04:55 012 25.6
2019-Sep-18 04:40 012 26.1
2019-Sep-18 04:25 012 26.1
2019-Sep-18 04:10 012 26.7